Total_Precipitation_Accumulation
2.58 2.63 2.37 2.26 2.12 2.30 2.52 2.54 2.34 2.45 2.59 2.55 2.31 2.16 2.04 1.79 1.63 1.50 1.62 1.95 1.95 1.95 2.20 2.19 2.09 1.98 1.75 1.52 1.41 1.32 1.26 1.15 1.02 0.83 0.76 0.68 0.58 0.48 0.36 0.30 0.25 0.24 0.25
2.45 2.31 2.31 2.34 2.20 2.31 2.32 2.32 2.37 2.57 2.71 2.77 2.44 2.23 2.11 1.95 1.80 1.73 1.72 2.00 2.05 1.93 2.09 2.39 2.51 2.42 2.30 2.02 1.81 1.69 1.57 1.45 1.21 0.91 0.82 0.77 0.65 0.57 0.51 0.47 0.41 0.33 0.27
2.40 2.39 2.31 2.17 2.18 2.24 2.34 2.40 2.43 2.56 2.47 2.50 2.45 2.32 2.26 2.11 1.98 1.85 1.81 1.81 1.66 1.83 2.03 2.27 2.51 2.57 2.62 2.48 2.35 2.20 1.97 1.69 1.39 1.05 0.83 0.77 0.70 0.59 0.54 0.54 0.53 0.46 0.37
2.16 2.26 2.09 2.05 2.13 2.00 2.01 2.17 2.14 2.19 2.26 2.37 2.37 2.19 2.14 2.16 2.00 1.93 1.80 1.72 1.80 1.57 1.88 2.23 2.44 2.39 2.56 2.78 2.97 2.94 2.50 1.95 1.53 1.22 0.98 0.84 0.78 0.65 0.54 0.49 0.49 0.50 0.41
1.73 1.79 1.76 1.84 1.83 1.80 1.82 1.66 1.97 2.08 2.17 2.21 2.07 2.01 1.90 2.07 2.04 1.87 1.80 1.58 1.75 1.74 1.75 1.88 2.17 2.17 2.40 2.87 3.33 3.45 3.20 2.59 1.97 1.63 1.43 1.26 1.16 0.96 0.72 0.61 0.54 0.51 0.44
1.63 1.58 1.55 1.64 1.58 1.64 1.76 1.82 1.98 1.97 1.90 1.90 1.68 1.76 1.78 1.60 1.68 1.71 1.63 1.62 1.60 1.38 1.49 1.73 2.05 1.81 2.16 2.62 2.99 3.25 3.44 3.29 2.75 2.25 2.00 1.92 1.83 1.49 1.04 0.83 0.72 0.66 0.56
1.54 1.60 1.44 1.55 1.45 1.48 1.50 1.53 1.65 1.66 1.61 1.67 1.82 1.80 1.53 1.32 1.31 1.33 1.42 1.62 1.53 1.49 1.59 1.85 2.00 1.96 1.78 1.88 2.10 2.56 3.21 3.51 3.36 2.85 2.47 2.23 2.16 1.88 1.36 1.09 0.92 0.85 0.79
1.34 1.30 1.40 1.38 1.34 1.47 1.50 1.48 1.54 1.53 1.43 1.47 1.66 1.89 1.63 1.45 1.20 0.96 1.11 1.14 1.22 1.47 1.59 1.64 1.73 1.96 1.84 1.98 1.67 1.84 2.57 3.17 3.61 3.49 3.04 2.54 2.23 1.95 1.61 1.37 1.15 1.00 0.94
1.16 1.21 1.22 1.23 1.33 1.32 1.45 1.47 1.36 1.41 1.44 1.40 1.42 1.70 1.71 1.57 1.33 0.99 0.90 0.99 1.12 1.29 1.36 1.56 1.60 1.68 1.67 1.98 2.15 1.94 1.96 2.24 3.08 3.70 3.66 3.08 2.44 1.97 1.77 1.68 1.56 1.33 1.14
1.11 1.07 1.09 1.10 1.19 1.18 1.38 1.23 1.28 1.43 1.47 1.34 1.26 1.24 1.36 1.41 1.48 1.29 1.03 0.95 1.05 1.13 1.21 1.26 1.42 1.65 1.80 1.93 2.08 1.95 1.64 1.67 2.27 3.03 3.51 3.43 2.92 2.38 2.06 1.99 2.14 2.05 1.69
1.27 1.13 1.15 1.15 1.19 1.15 1.19 1.18 1.41 1.39 1.33 1.27 1.23 1.25 1.30 1.29 1.28 1.32 1.23 1.08 1.02 0.90 0.95 1.08 1.34 1.52 1.59 1.79 2.09 1.90 1.65 1.50 1.64 2.09 2.59 2.90 2.94 2.64 2.33 2.22 2.50 2.70 2.49
1.35 1.22 1.20 1.20 1.15 1.13 1.10 1.08 1.26 1.29 1.34 1.36 1.29 1.20 1.28 1.27 1.26 1.33 1.20 1.06 0.96 0.72 0.71 0.85 1.04 1.18 1.31 1.56 1.70 1.73 1.71 1.67 1.59 1.66 1.79 2.05 2.34 2.40 2.37 2.48 2.79 3.02 3.09
1.10 1.11 1.12 1.14 1.03 1.06 1.15 1.25 1.25 1.25 1.31 1.32 1.23 1.16 1.14 1.02 1.10 1.19 1.10 0.94 0.93 0.78 0.86 0.81 0.86 1.08 1.23 1.55 1.67 1.68 1.58 1.59 1.40 1.33 1.37 1.45 1.59 1.84 2.11 2.32 2.62 2.93 3.24
1.07 1.10 1.12 1.08 1.06 1.09 1.11 1.30 1.20 1.17 1.21 1.19 1.07 1.25 1.20 0.99 1.10 1.17 1.22 1.32 1.19 1.09 1.10 0.93 0.95 1.21 1.52 1.63 1.77 1.74 1.43 1.43 1.28 1.16 1.08 1.11 1.20 1.36 1.50 1.69 1.93 2.12 2.35
1.16 1.22 1.20 1.17 1.18 1.25 1.33 1.41 1.29 1.27 1.32 1.18 1.16 1.34 1.28 1.15 1.18 1.17 1.28 1.47 1.55 1.36 1.24 1.23 1.25 1.28 1.47 1.55 1.68 1.58 1.41 1.47 1.34 1.18 1.07 1.02 1.04 1.11 1.18 1.24 1.33 1.43 1.53
1.21 1.28 1.27 1.22 1.27 1.32 1.41 1.46 1.34 1.37 1.35 1.28 1.32 1.43 1.40 1.29 1.32 1.31 1.31 1.43 1.65 1.63 1.44 1.29 1.33 1.30 1.35 1.24 1.39 1.30 1.31 1.43 1.28 1.19 1.15 1.11 1.07 1.08 1.09 1.14 1.17 1.16 1.16
1.29 1.29 1.28 1.27 1.25 1.31 1.37 1.42 1.35 1.34 1.30 1.32 1.32 1.34 1.34 1.42 1.48 1.47 1.55 1.58 1.64 1.76 1.63 1.36 1.41 1.51 1.50 1.34 1.29 1.26 1.23 1.22 1.19 1.24 1.18 1.15 1.10 1.04 0.98 0.94 0.98 1.01 0.99
1.25 1.30 1.33 1.27 1.17 1.23 1.35 1.37 1.30 1.34 1.36 1.32 1.37 1.50 1.43 1.46 1.54 1.58 1.72 1.68 1.73 1.95 1.94 1.71 1.67 1.73 1.61 1.51 1.43 1.34 1.19 1.12 1.13 1.25 1.18 1.11 1.04 0.97 0.92 0.88 0.86 0.84 0.83
1.34 1.31 1.27 1.19 1.16 1.19 1.23 1.27 1.34 1.45 1.49 1.49 1.54 1.60 1.62 1.74 1.69 1.71 1.77 1.76 1.82 2.03 2.21 2.05 1.94 2.00 1.95 1.72 1.60 1.40 1.26 1.27 1.12 1.17 1.20 1.13 1.07 1.01 0.94 0.94 0.93 0.87 0.80
1.41 1.43 1.42 1.44 1.43 1.38 1.35 1.38 1.46 1.51 1.53 1.56 1.65 1.65 1.66 1.73 1.79 1.87 1.90 1.99 2.13 2.30 2.45 2.37 2.29 2.33 2.32 2.14 1.92 1.59 1.48 1.40 1.28 1.15 1.23 1.21 1.17 1.11 1.02 0.94 0.90 0.89 0.86
1.66 1.77 1.75 1.70 1.72 1.67 1.51 1.58 1.63 1.58 1.67 1.60 1.64 1.65 1.60 1.66 1.73 1.83 1.83 1.99 2.24 2.45 2.62 2.66 2.65 2.77 2.68 2.49 2.19 1.84 1.75 1.66 1.53 1.34 1.25 1.15 1.12 1.06 1.03 1.02 0.97 0.95 0.92
1.85 1.89 1.83 1.80 1.79 1.58 1.67 1.73 1.70 1.75 1.78 1.73 1.74 1.75 1.69 1.63 1.60 1.63 1.71 1.82 1.97 2.17 2.43 2.63 2.72 2.79 2.82 2.68 2.47 2.22 1.90 1.64 1.51 1.38 1.36 1.28 1.17 1.12 1.03 0.96 1.06 1.02 0.96
1.76 1.81 1.83 1.81 1.71 1.66 1.64 1.51 1.52 1.52 1.62 1.69 1.70 1.70 1.56 1.45 1.49 1.42 1.53 1.58 1.59 1.68 1.81 2.05 2.27 2.32 2.50 2.58 2.48 2.16 1.85 1.60 1.41 1.38 1.40 1.33 1.25 1.17 1.08 1.05 1.14 1.02 0.95
2.03 2.02 1.94 1.89 1.87 1.75 1.63 1.47 1.47 1.35 1.39 1.43 1.47 1.51 1.52 1.43 1.42 1.48 1.47 1.39 1.27 1.28 1.37 1.40 1.52 1.77 2.02 2.29 2.35 2.23 2.14 1.86 1.58 1.38 1.32 1.29 1.17 1.10 1.05 1.02 1.12 1.04 0.97
2.14 2.12 2.09 2.12 2.13 2.10 1.98 1.69 1.56 1.46 1.52 1.51 1.51 1.51 1.52 1.40 1.46 1.38 1.33 1.31 1.24 1.19 1.21 1.25 1.31 1.50 1.77 1.97 2.16 2.16 2.07 1.96 1.72 1.44 1.30 1.27 1.16 1.14 1.11 1.03 1.02 1.05 0.99
2.04 2.05 2.00 2.07 2.04 2.05 2.10 1.80 1.56 1.39 1.44 1.47 1.53 1.54 1.57 1.44 1.49 1.41 1.37 1.40 1.31 1.23 1.22 1.20 1.22 1.28 1.36 1.61 1.87 1.87 1.82 1.84 1.72 1.51 1.26 1.25 1.19 1.18 1.21 1.02 0.86 0.84 0.85